Other Public Products
Issued by NWS Charleston, SC

Current Version | Previous Version | Graphics & Text | Print | Product List | Glossary On
Versions: 1 2 3 4 5 6 7 8 9 10 11 12 13 14 15 16 17 18 19 20 21 22 23 24 25 26 27 28 29 30 31 32 33 34 35 36 37 38 39 40 41 42 43 44 45 46 47 48 49 50
549
FPUS82 KCHS 211810
OPUCHS

TEST...KCHS/KSAV Gateway Observations...TEST
National Weather Service Charleston SC
100 PM EST TUE FEB 21 2017

NOTE: "fair" indicates few or no clouds below 12,000 feet with no
significant weather and/or obstructions to visibility.

SCZ050-WAZ558-NCZ071-TXZ119-213-PAZ071-DCZ001-FLZ074-172-MI076-
NYZ176-178-MAZ016-IL014-TNZ027-NJZ106-GAZ044-MD014-211900-
...Gateway Observations for Charleston International...

CITY           SKY/WX    TMP DP  RH WIND       PRES   REMARKS
Chas Airport   CLOUDY    69  56  62 E12       30.13F
6HR MIN TEMP:  56; 6HR MAX TEMP:  70;

Seattle        CLOUDY    43  42  97 N8        29.85R
6HR MIN TEMP:  41; 6HR MAX TEMP:  43; 6HR PCP:  0.06;

Charlotte      CLOUDY    65  40  39 SE13      30.16F
6HR MIN TEMP:  52; 6HR MAX TEMP:  66;

Dallas DFW     MOSUNNY   69  49  48 NW14      29.98F
6HR MIN TEMP:  51; 6HR MAX TEMP:  69;

Dallas Love    SUNNY     68  50  52 NW12G21   29.98F
6HR MIN TEMP:  51; 6HR MAX TEMP:  68;

Philladelphia  CLOUDY    49  29  46 SW9       30.29F
6HR MIN TEMP:  35; 6HR MAX TEMP:  49;

Wash National  CLOUDY    55  29  36 S10       30.26F
6HR MIN TEMP:  41; 6HR MAX TEMP:  55;

Baltimore      CLOUDY    51  28  41 SE8G16    30.26F
6HR MIN TEMP:  36; 6HR MAX TEMP:  52;

Miami          CLOUDY    75  58  55 E12       30.05F
6HR MIN TEMP:  67; 6HR MAX TEMP:  76;

Detroit        CLOUDY    53  42  66 S7        29.93F
6HR MIN TEMP:  39; 6HR MAX TEMP:  53; 6HR PCP: TRACE;

Newark         CLOUDY    45  30  55 SE7       30.30F
6HR MIN TEMP:  33; 6HR MAX TEMP:  46;

Laguardia      PTSUNNY   47  27  45 S10       30.30F
6HR MIN TEMP:  36; 6HR MAX TEMP:  47;

J F K          PTSUNNY   45  30  55 S12       30.33F
6HR MIN TEMP:  33; 6HR MAX TEMP:  45;

Boston Logan   PTSUNNY   39  28  64 SE9       30.31F WCI  33
6HR MIN TEMP:  30; 6HR MAX TEMP:  40;

Ft. Lauderdale CLOUDY    76  61  59 E15       30.06F
6HR MIN TEMP:  71; 6HR MAX TEMP:  78;

Chicago O`Hare CLOUDY    62  54  74 SW12      29.93F
6HR MIN TEMP:  55; 6HR MAX TEMP:  63; 6HR PCP:  0.01;

Chicago Midway CLOUDY    61  55  81 W10       29.94F
6HR MIN TEMP:  54; 6HR MAX TEMP:  61; 6HR PCP:  0.05;

Houston Bush   MOSUNNY   67  57  70 N7G18     29.95F
6HR MIN TEMP:  54; 6HR MAX TEMP:  67;

Houston Hobby  MOSUNNY   69  56  62 N13       29.93F
6HR MIN TEMP:  57; 6HR MAX TEMP:  69;

Nashville      CLOUDY    69  52  54 S22G30    29.96F
6HR MIN TEMP:  57; 6HR MAX TEMP:  69; 6HR PCP: TRACE;

Atlanta        PTSUNNY   69  56  62 SE10G18   30.05F
6HR MIN TEMP:  55; 6HR MAX TEMP:  69;


$$

GAZ044-118-TXZ119-213-NCZ071-DCZ001-MDZ014-506-PAZ021-071-NJZ106-
NYZ176-178-MAZ106-OHZ011-021-055-MIZ076-KYZ091-ILZ014-INZ047-
MNZ060-211900-
...Gateway Observations for Savannah International...

CITY           SKY/WX    TMP DP  RH WIND       PRES   REMARKS
Savannah Arpt  CLOUDY    74  59  59 E13       30.09F
6HR MIN TEMP:  54; 6HR MAX TEMP:  75;

Atlanta        PTSUNNY   69  56  62 SE10G18   30.05F
6HR MIN TEMP:  55; 6HR MAX TEMP:  69;

Charlotte      CLOUDY    65  40  39 SE13      30.16F
6HR MIN TEMP:  52; 6HR MAX TEMP:  66;

Dallas DFW     MOSUNNY   69  49  48 NW14      29.98F
6HR MIN TEMP:  51; 6HR MAX TEMP:  69;

Houston Bush   MOSUNNY   67  57  70 N7G18     29.95F
6HR MIN TEMP:  54; 6HR MAX TEMP:  67;

Wash National  CLOUDY    55  29  36 S10       30.26F
6HR MIN TEMP:  41; 6HR MAX TEMP:  55;

Wash Dulles    CLOUDY    53  27  36 S10       30.23F
6HR MIN TEMP:  36; 6HR MAX TEMP:  53;

Baltimore      CLOUDY    51  28  41 SE8G16    30.26F
6HR MIN TEMP:  36; 6HR MAX TEMP:  52;

Philadelphia   CLOUDY    49  29  46 SW9       30.29F
6HR MIN TEMP:  35; 6HR MAX TEMP:  49;

Newark         CLOUDY    45  30  55 SE7       30.30F
6HR MIN TEMP:  33; 6HR MAX TEMP:  46;

Laguardia      PTSUNNY   47  27  45 S10       30.30F
6HR MIN TEMP:  36; 6HR MAX TEMP:  47;

J F K          PTSUNNY   45  30  55 S12       30.33F
6HR MIN TEMP:  33; 6HR MAX TEMP:  45;

Boston         PTSUNNY   39  28  64 SE9       30.31F WCI  33
6HR MIN TEMP:  30; 6HR MAX TEMP:  40;

Pittsburg      CLOUDY    64  39  39 SW12      30.02F
6HR MIN TEMP:  45; 6HR MAX TEMP:  64;

Akron          CLOUDY    61  41  47 SW14      29.99F
6HR MIN TEMP:  47; 6HR MAX TEMP:  62;

Cleveland      CLOUDY    65  40  39 SW9       29.99F
6HR MIN TEMP:  50; 6HR MAX TEMP:  65;

Cincinnati     CLOUDY    65  47  52 S8        30.00F
6HR MIN TEMP:  50; 6HR MAX TEMP:  65;

Columbus       PTSUNNY   62  45  53 S6        30.01F
Detroit        CLOUDY    53  42  66 S7        29.93F
6HR MIN TEMP:  39; 6HR MAX TEMP:  53; 6HR PCP: TRACE;

Chicago O`Hare CLOUDY    62  54  74 SW12      29.93F
6HR MIN TEMP:  55; 6HR MAX TEMP:  63; 6HR PCP:  0.01;

Minneapolis    MOSUNNY   53  39  59 VRB7      29.83F
6HR MIN TEMP:  32; 6HR MAX TEMP:  53;

Indianapolis   CLOUDY    63  47  55 S9        29.98F
6HR MIN TEMP:  50; 6HR MAX TEMP:  63; 6HR PCP: TRACE;


$$




USA.gov is the U.S. government's official web portal to all federal, state and local government web resources and services.